Location: Mainz-Finthen
(49.9906°N, 8.1713°E)
Time: 06:57:08
(UTC+00:00)

Envisat - Pass Details

Date: 28 September 2021
Orbit: 764 x 766 km, 98.2° (Epoch: 22 October)

Event Time Altitude Azimuth Distance (km) Brightness Sun altitude
Rises 03:44:14 0° 23° (NNE) 3,244 6.9 -16.5°
Reaches altitude 10° 03:46:55 10° 36° (NE) 2,312 6.3 -16.1°
Maximum altitude 03:51:10 26° 93° (E) 1,473 5.3 -15.4°
Drops below altitude 10° 03:55:22 10° 149° (SSE) 2,296 5.7 -14.8°
Sets 03:58:01 0° 162° (SSE) 3,217 6.3 -14.3°
